Regional Weather Roundup
Issued by NWS Mt. Holly, NJ

Home | Current Version | Previous Version | Text Only | Print | Product List | Glossary On
Versions: 1 2 3 4 5 6 7 8 9 10 11 12 13 14 15 16 17 18 19 20 21 22 23 24 25 26 27 28 29 30 31 32 33 34 35 36 37 38 39 40 41 42 43 44 45 46 47 48 49 50
000
ASUS41 KPHI 230410
RWRPHI

REGIONAL WEATHER ROUNDUP
NATIONAL WEATHER SERVICE MOUNT HOLLY NJ
1200 AM EDT WED JUL 23 2014

NOTE:  "FAIR" INDICATES FEW OR NO CLOUDS BELOW 12,000 FEET WITH NO
SIGNIFICANT WEATHER AND/OR OBSTRUCTIONS TO VISIBILITY.

 * = STATION DOES NOT REPORT PRECIPITATION (E.G. RAIN, SNOW, ETC.)
        OR FOG.

NJZ015>026-230500-
SOUTHERN NEW JERSEY

CITY           SKY/WX    TMP DP  RH WIND       PRES   REMARKS
POMONA         PTCLDY    71  68  90 S5        30.08F
RIO GRANDE*    PTCLDY    70  64  83 S3        30.10S
MILLVILLE      PTCLDY    71  68  90 CALM      30.08F
WRIGHTSTOWN    CLEAR     69  64  84 SW5       30.06F
MOUNT HOLLY    CLEAR     71  64  78 CALM      30.07F
TRENTON        CLEAR     73  63  70 S7        30.07F

$$
NJZ001>014-230500-
NORTHERN NEW JERSEY

CITY           SKY/WX    TMP DP  RH WIND       PRES   REMARKS
SUSSEX         CLEAR     75  69  81 SW3       30.04F
ANDOVER*         N/A     74  68  81 VRB3      30.06F
MORRISTOWN     CLEAR     75  64  69 S3        30.05S
NEWARK         PTCLDY    76  64  66 SW9       30.05F
TETERBORO      CLEAR     79  64  60 S12       30.03F
CALDWELL       PTCLDY    77  64  64 VRB3      30.04F
SOMERVILLE     CLEAR     73  66  78 CALM      30.04F
ALLAIRE*       CLEAR     72  63  73 SW8       30.07F
TOMS RIVER*    PTCLDY    70  66  88 CALM      30.08F

$$
PAZ043-044-047-054-055-060>062-066>071-230500-
EASTERN PENNSYLVANIA

CITY           SKY/WX    TMP DP  RH WIND       PRES   REMARKS
PHILADELPHIA   CLEAR     75  59  57 SW7       30.08F
NORTH PHILA    CLEAR     76  58  53 SW6       30.09F
BLUE BELL      CLEAR     72  63  73 SW3       30.07F
DOYLESTOWN     CLEAR     72  63  73 VRB5      30.07F
QUAKERTOWN*    CLEAR     72  64  78 S3        30.08F
POTTSTOWN      CLEAR     73  64  73 S3        30.08F
LANCASTER      CLEAR     74  65  73 S6        30.06F
COATESVILLE    CLEAR     68  66  94 CALM      30.10F
READING        CLEAR     76  66  71 S7        30.05F
ALLENTOWN      CLEAR     76  66  71 SW8       30.05F
MOUNT POCONO   CLEAR     71  66  84 W9        30.11F
HAZLETON       CLEAR     72  68  88 S5        30.13S
WILKES BARRE   CLEAR     76  68  76 SW8       30.05S

$$
DEZALL-MDZ008-012-015-019-020-230500-
DELAWARE AND EASTERN MARYLAND

CITY           SKY/WX    TMP DP  RH WIND       PRES   REMARKS
WILMINGTON     CLEAR     74  67  78 CALM      30.09F
DOVER          CLEAR     71  66  85 S5        30.06F
GEORGETOWN     CLEAR     70  66  87 S9        30.09F
EASTON         CLEAR     74  66  74 CALM      30.12F
PATUXENT       CLEAR     73  68  84 S3        30.09F
OCEAN CITY     CLEAR     73  70  90 S5        30.09F
WALLOPS ISLAND CLEAR     74  72  93 S6        30.10F
CAMBRIDGE      CLEAR     72  64  78 CALM      30.09S

$$
PAZ001-021-NYZ056-072-MDZ011-DCZ001-230500-
OTHER NEARBY LOCATIONS

CITY           SKY/WX    TMP DP  RH WIND       PRES   REMARKS
HARRISBURG     PTCLDY    78  68  71 SW10      30.05F
STATE COLLEGE  PTCLDY    73  69  85 SW6       30.07S
WILLIAMSPORT   CLOUDY    76  69  79 CALM      30.01F
BINGHAMTON     CLEAR     73  67  81 SW9       30.05S
NEW YORK CITY  CLEAR     77  63  61 SW7G18    30.08S
BALTIMORE      CLEAR     74  65  73 CALM      30.07F
WASHINGTON DC  PTCLDY    78  67  68 S9        30.08F

$$



USA.gov is the U.S. government's official web portal to all federal, state and local government web resources and services.